Skip Page Navigation
NASA JPL Caltech
NASA Logo - Jet Propulsion Laboratory + View the NASA Portal
+ Center for Near-Earth Object Studies
JPL Home Earth Solar System Stars & Galaxies Technology
JPL Solar System Dynamics
BODIES ORBITS EPHEMERIDES TOOLS PHYSICAL DATA DISCOVERY FAQ SITE MAP
JPL Small-Body Database Browser
Search: [ help ]  
12022 Hilbert (1996 XH26)
Classification: Main-belt Asteroid          SPK-ID: 2012022
Ephemeris | Orbit Diagram | Orbital Elements | Mission Design | Physical Parameters | Discovery Circumstances ]

[ hide orbit diagram ]

For accurate long-term ephemerides, please instead use our Horizons system.This orbit viewer was implemented using two-body methods, and hence should not be used for determining accurate long-term trajectories (over several years or decades) or planetary encounter circumstances.


Orbital Elements at Epoch 2459200.5 (2020-Dec-17.0) TDB
Reference: JPL 22 (heliocentric ecliptic J2000)
 Element Value Uncertainty (1-sigma)   Units 
e .105854493492501 2.8532e-08  
a 2.342065794277646 7.539e-09 au
q 2.094147605898274 6.7114e-08 au
i .5774727980395205 3.6657e-06 deg
node 199.9137782961911 0.00033848 deg
peri 251.2674779399507 0.00033901 deg
M 259.9740489099602 1.9711e-05 deg
tp 2459564.253560147647
(2021-Dec-15.75356015)
7.2279e-05 TDB
period 1309.173071848876
3.58
6.3213e-06
1.731e-08
d
yr
n .2749827411982978 1.3277e-09 deg/d
Q 2.589983982657019 8.337e-09 au
  Orbit Determination Parameters
   # obs. used (total)      1336  
   data-arc span      9699 days (26.55 yr)  
   first obs. used      1994-04-16  
   last obs. used      2020-11-04  
   planetary ephem.      DE441  
   SB-pert. ephem.      SB441-N16  
   condition code      0  
   norm. resid. RMS      .50605  
   source      ORB  
   producer      Otto Matic  
   solution date      2021-Apr-12 23:05:38  

Additional Information
 Earth MOID = 1.11056 au 
 Jupiter MOID = 2.55425 au 
 T_jup = 3.556 
[ show covariance matrix ]

Ephemeris | Orbit Diagram | Orbital Elements | Mission Design | Physical Parameters | Discovery Circumstances ]

Physical Parameter Table
Parameter Symbol Value Units Sigma Reference Notes
absolute magnitude H 15.57   n/a E2021B10  
diameter diameter 3.031 km 0.382 urn:nasa:pds:neowise_diameters_albedos::2.0[mainbelt] (http://adsabs.harvard.edu/abs/2012ApJ...759L...8M)  
rotation period rot_per 9.553 h n/a LCDB (Rev. 2020-October); Warner et al., 2009 Result based on fragmentary lightcurve(s), may be completely wrong.
Published Reference List:
[Waszczak, A.; Chang, C.-K.; Ofeck, E.O.; Laher, F.; et al. (2015) Astron. J. 150, A75.]
geometric albedo albedo 0.133   0.044 urn:nasa:pds:neowise_diameters_albedos::2.0[mainbelt] (http://adsabs.harvard.edu/abs/2012ApJ...759L...8M)  

12022 Hilbert           Discovered 1996 Dec. 15 by P. G. Comba at Prescott.
David Hilbert (1862-1943), professor at Göttingen and one of the greatest mathematicians of all time, exerted a profound influence on the development of many branches of mathematics in the twentieth century: the foundations, geometry, algebra, analysis. His name is associated with the infinite-dimensional Hilbert space.
NOTE: some special characters may not display properly (any characters within {} are an attempt to place the proper accent above a character)
Reference: 20000124/MPCPages.arcLast Updated: 2013-03-29

Alternate Designations
 1996 XH26 = 1994 HT 
Ephemeris | Orbit Diagram | Orbital Elements | Mission Design | Physical Parameters | Discovery Circumstances ]
ABOUT SSD CREDITS/AWARDS PRIVACY/COPYRIGHT GLOSSARY LINKS
FirstGov 2021-May-16 01:40 UT
(server date/time)  
NASA Home Page
Site Manager:   Ryan S. Park
Webmaster  Alan B. Chamberlin